www.pogodaiklimat.ru

Погода и климат >> Архив погоды >> Россия >> Рязанская область >> Рязань


АРХИВ ПОГОДЫ в Рязани

Время (UTC), дата Ветер
(напр.,м/с)
 
Видим.   Явления Облачность Т
(С)
Тd
(С)
f
(%)
Тe
(С)
Тes
(С)
Комфортность P
(гПа)
Po
(гПа)
Тmin
(С)
Tmax
(С)
R
(мм)
R24
(мм)
S
(см)
00 9.12 Ю 1 4000 м дымка 10/10 300 м
[Sc]
-5.9 -6.2 98 -8 -8 по сезону 1015.3 995.2
03 9.12 Ю 2 4000 м дымка 10/10 300 м
[Sc]
-5.8 -6.1 98 -10 -10 по сезону 1014.1 994.0 -6.9 18
06 9.12 Ю 3 4000 м дымка 10/10 600 м
[Sc]
-5.3 -5.7 97 -11 -11 по сезону 1013.6 993.6
09 9.12 Ю 3 4000 м слабый снег 10/10 300 м
[Sc]
-5.0 -5.5 96 -11 -11 по сезону 1013.0 993.0
12 9.12 Ю 3 2000 м снег 10/10 300 м
[Sc]
-4.2 -4.5 98 -10 -10 по сезону 1011.8 991.9
15 9.12 Ю 3 4000 м слабый снег 10/10 600 м
[Sc]
-2.8 -3.1 98 -8 -8 по сезону 1010.3 990.5 -2.8 3
18 9.12 Ю 4 4000 м слабый снег 10/10 600 м
[Sc]
-2.3 -2.6 98 -8 -8 по сезону 1010.3 989.7
21 9.12 Ю 4 4000 м 10/10 600 м
[Sc]
-1.1 -1.4 98 -7 -7 по сезону 1008.9 989.3
00 10.12 Ю 4 4000 м слабый снег 10/10 600 м
[Sc]
-0.3 -0.6 98 -6 -6 по сезону 1008.3 988.7
03 10.12 Ю 4 4000 м слабый снег 10/10 600 м
[Sc]
+0.4 +0.1 98 -5 -5 по сезону 1007.3 987.8 -2.8 3 20
06 10.12 Ю 3 4000 м дымка {снег} 10/10 300 м
[Sc]
+0.8 +0.6 99 -4 -4 тепло 1008.0 988.5
09 10.12 Ю 4 4000 м дымка {снег} 10/10 300 м
[Sc]
+0.9 +0.7 99 -5 -5 по сезону 1009.0 989.5
12 10.12 Ю 4 4000 м дымка {снег} 10/10 300 м
[Sc]
+1.1 +0.8 98 -4 -4 по сезону 1010.1 990.6
15 10.12 Ю 2 4000 м дымка 10/10 300 м
[Sc]
+0.8 +0.5 98 -3 -3 тепло 1011.6 992.1 +1.1 0.5
18 10.12 ЮВ 3 4000 м слабый снег {морось} 10/10 300 м
[Sc]
+0.6 +0.3 98 -4 -4 по сезону 1012.2 992.6
21 10.12 ЮВ 3 4000 м слабый снег 10/0
[As op]
+0.3 0.0 98 -5 -5 по сезону 1012.0 992.4
00 11.12 ЮВ 3 4000 м слабый снег 10/0
[As op]
+0.5 +0.2 98 -4 -4 тепло 1011.3 991.7
03 11.12 ЮВ 3 4000 м слабый снег 10/0
[As op]
-0.5 -0.7 99 -6 -6 по сезону 1011.2 991.6 -0.5 5 18
06 11.12 ЮВ 3
{10}
10 км в посл. час снег 10/10 300 м
[Sc]
-1.1 -1.3 99 -6 -6 по сезону 1012.0 992.3 -1.1
09 11.12 ЮВ 2 4000 м слабый ливневой снег 10/10 300 м
[Cb cap]
-1.2 -1.5 98 -5 -5 по сезону 1013.0 993.3
12 11.12 ЮВ 2 10 км в посл. час ливневой снег 10/10 300 м
[Cb cap]
-1.2 -1.5 98 -5 -5 по сезону 1013.7 994.0
15 11.12 Ю 3 10 км 10/10 300 м
[Sc]
-1.0 -1.3 98 -6 -6 по сезону 1015.1 995.4 -0.5 2
18 11.12 ЮВ 2 4000 м дымка 10/10 300 м
[St]
-0.7 -1.0 98 -5 -5 по сезону 1016.6 996.9
21 11.12 ЮВ 2 2000 м дымка 10/10 300 м
[St]
-1.0 -1.2 99 -5 -5 по сезону 1017.8 998.0
00 12.12 ЮВ 1 4000 м дымка 10/10 300 м
[St]
-1.3 -1.6 98 -4 -4 тепло 1018.2 998.4
03 12.12 В 1 4000 м дымка 10/10 300 м
[St]
-1.8 -2.1 98 -4 -4 тепло 1017.9 998.1 -1.8 19
06 12.12 СВ 1 4000 м дымка 10/10 300 м
[Sc]
-1.5 -1.8 98 -4 -4 тепло 1018.1 998.3 -1.9
09 12.12 СВ 2 4000 м дымка 10/10 300 м
[Sc]
-1.3 -1.6 98 -5 -5 по сезону 1017.5 997.7
12 12.12 СВ 2 1000 м сильный снег 10/10 200 м
[Frnb Ns]
-1.2 -1.4 99 -5 -5 по сезону 1016.6 996.8
15 12.12 СВ 3 4000 м дымка {снег} 10/10 300 м
[Sc]
-1.3 -1.5 99 -6 -6 по сезону 1016.4 996.6 -1.0 2
18 12.12 СВ 2 4000 м дымка {снег} 10/10 300 м
[Sc]
-1.3 -1.6 98 -5 -5 по сезону 1016.3 996.5
21 12.12 СВ 2 4000 м дымка 10/10 300 м
[Sc]
-1.5 -1.7 99 -6 -6 по сезону 1016.1 996.3
00 13.12 СВ 2 4000 м слабый снег 10/0
[As op]
-1.6 -1.9 98 -6 -6 по сезону 1016.7 996.8
03 13.12 СВ 2 4000 м слабый снег 10/0
[As op]
-1.8 -2.1 98 -6 -6 по сезону 1016.5 996.7 -1.9 0.8 20
06 13.12 СВ 2 2000 м слабый снег 10/0 300 м
[As op]
-2.0 -2.2 99 -6 -6 по сезону 1018.1 998.2 -2.0
09 13.12 В 2 4000 м слабый снег 10/0
[As op]
-2.0 -2.7 95 -6 -6 по сезону 1019.4 999.5
12 13.12 СВ 2 4000 м слабый снег 10/0
[As op]
-2.6 -3.1 96 -7 -7 по сезону 1021.0 1001.0
15 13.12 В 1 4000 м дымка {снег} 10/0
[As op]
-3.8 -4.4 96 -6 -6 по сезону 1022.5 1002.4 -1.8 4
18 13.12 СВ 1 4000 м дымка 10/10 300 м
[Sc]
-4.5 -5.0 96 -7 -7 по сезону 1023.8 1003.6
21 13.12 СВ 1 4000 м дымка 10/10 300 м
[Sc]
-4.5 -4.9 97 -7 -7 по сезону 1024.8 1004.6
00 14.12 СВ 2 4000 м слабый снег 10/0
[As op]
-4.9 -5.3 97 -9 -9 по сезону 1025.0 1004.8
03 14.12 СВ 1 4000 м слабый снег 10/0
[As op]
-4.5 -4.9 97 -7 -7 по сезону 1025.1 1005.0 -4.9 0.2 24
06 14.12 СВ 2 4000 м слабый снег 10/0
[As op]
-3.7 -4.0 98 -8 -8 по сезону 1025.4 1005.3
09 14.12 СВ 3 4000 м слабый снег 10/0
[As op]
-2.8 -3.3 96 -8 -8 по сезону 1025.4 1005.3
12 14.12 С 3 4000 м дымка {снег} 10/10 300 м
[Sc]
-2.6 -3.1 96 -8 -8 по сезону 1025.8 1005.7
15 14.12 С 3 4000 м дымка 10/10 300 м
[Sc]
-2.6 -3.2 96 -8 -8 по сезону 1026.3 1006.2 -2.6 0.5
18 14.12 С 2 4000 м дымка 10/10 300 м
[Sc]
-2.8 -3.3 96 -7 -7 по сезону 1026.9 1006.8
21 14.12 СВ 2 4000 м дымка 10/10 300 м
[Sc]
-2.5 -2.8 98 -7 -7 по сезону 1027.2 1007.1
00 15.12 С 3 4000 м дымка 10/10 300 м
[Sc]
-2.7 -3.0 98 -8 -8 по сезону 1028.0 1007.9
03 15.12 С 3 4000 м дымка 10/10 300 м
[Sc]
-2.9 -3.2 98 -8 -8 по сезону 1028.5 1008.3 -3.0 24
06 15.12 С 3 4000 м дымка 10/10 300 м
[Sc]
-3.0 -3.4 97 -8 -8 по сезону 1029.3 1009.1 -3.1
09 15.12 С 3 4000 м дымка 10/10 300 м
[Sc]
-3.1 -3.6 96 -9 -9 по сезону 1030.6 1010.4
12 15.12 С 3 4000 м дымка 10/10 300 м
[Sc]
-4.0 -4.4 97 -10 -10 по сезону 1031.8 1011.5
15 15.12 С 2 4000 м дымка 10/10 300 м
[Sc]
-5.4 -5.7 98 -10 -10 по сезону 1033.4 1013.0 -2.8
18 15.12 С 2 4000 м дымка 10/10 300 м
[Sc]
-7.2 -7.5 98 -12 -12 по сезону 1034.8 1014.2
21 15.12 С 1 4000 м дымка 10/10 300 м
[Sc]
-8.2 -8.4 98 -11 -11 по сезону 1036.4 1015.7

 

Местоположение метеостанции Рязань (Рязанская область, Россия): широта 54.63 долгота 39.70 высота над уровнем моря 157 м.

В архиве по умолчанию представлена погода в Рязани за последнюю неделю. Архивные данные за месяц целиком и за предыдущие месяцы, начиная с января 2011 года, Вы можете получить, выбрав интересующий диапазон дат из раскрывающегося списка и нажав кнопку "Ввод!".


*Определитесь, кто Вы:
робот инопланетянин человек

Внимание! Время в таблицах - всемирное. Для получения местного времени необходимо прибавить поправку, которая в Рязани равна 3 ч.

Смотрите также архив погоды в соседних городах и на ближайших метеорологических станциях:

Погода в Рыбном (Рязанская область, Россия) (13 км)
Погода в Старожилово (Рязанская область, Россия) (43 км)
Погода в Зарайске (Московская область, Россия) (57 км)
Погода в Луховицах (Московская область, Россия) (58 км)
Погода в Михайлове (Рязанская область, Россия) (62 км)
Погода в Серебряных Прудах (Московская область, Россия) (66 км)
Погода в Туме (Рязанская область, Россия) (78 км)
Погода в Коломне (Московская область, Россия) (83 км)
Погода в Шилово (Рязанская область, Россия) (85 км)
Погода в Егорьевске (Московская область, Россия) (94 км)

Пояснения к столбцам:

Ветер - указаны скорость ветра в м/с - средняя за 10 мин, порывы в срок и между сроками (в фигурных скобках) и направление, откуда дует ветер: С - северный, СВ - северо-восточный, В - восточный, ЮВ - юго-восточный, Ю - южный, ЮЗ - юго-западный, З - западный, СЗ - северо-западный.
Видимость - горизонтальная дальность видимости в метрах или километрах. При видимости от 1 до 10 км при отсутствии осадков обычно наблюдается дымка, при ухудшении видимости до 1 км и менее - туман. В сухую погоду видимость может ухудшаться дымом, пылью или мглою.
Явления - указаны атмосферные явления, наблюдавшиеся в срок или в последний час перед сроком; фигурными скобками обозначены явления, наблюдавшиеся между сроками (за 1-3 часа до срока); квадратными скобками обозначены град или гололедные отложения с указанием их диаметра в мм.
Облачность - указаны через наклонную черту общая и нижняя облачность в баллах и высота нижней границы облаков в метрах; квадратными скобками обозначены формы облаков: Ci - перистые, Cs - перисто-слоистые, Cc - перисто-кучевые, Ac - высококучевые, As - высокослоистые, Sc - слоисто-кучевые, Ns - слоисто-дождевые, Cu - кучевые, Cb - кучево-дождевые. Подробнее классификацию облаков см. в Атласе облаков (PDF).
T - Температура воздуха - температура, измеренная на высоте 2 м над землей.
Td - Температура точки росы - температура, при понижении до которой содержащийся в воздухе водяной пар достигнет насыщения.
f - Относительная влажность воздуха - влажноcть воздуха, измеренная на высоте 2 м над землей.
Te - Эффективная температура - температура, которую ощущает одетый по сезону человек в тени. Характеристика душности погоды. При расчете учитывается влияние влажности воздуха и скорости ветра на теплоощущения человека.
Tes - Эффективная температура на солнце - температура, которую ощущает человек, с поправкой на солнечный нагрев. Характеристика знойности погоды. Зависит от высоты солнца над горизонтом, облачности и скорости ветра. Ночью, в пасмурную погоду, а также при ветре 12 м/с и более поправка равна нулю.
P - Атмосферное давление - приведенное к уровню моря атмосферное давление.
Po - Атмосферное давление - измеренное на уровне метеостанции атмосферное давление.
Tmin - Минимальная температура - минимум температуры воздуха на высоте 2 м над землей.
Tmax - Максимальная температура - максимум температуры воздуха на высоте 2 м над землей.
R - Количество осадков - Количество выпавших осадков за период времени, мм. При наведении курсора мыши на число - период времени, за который выпало указанное количество осадков.
R24 - Количество осадков - Количество выпавших осадков за 24 часа, мм.
S - Снежный покров - Высота снежного покрова, см. При наведении курсора мыши на число - состояние снежного покрова и степень покрытия местности в баллах.